This is the latest recevied weather packets stored in our database for station/object W6ORV. If no packets are shown the sender has not sent any weather packets the latest 10 day(s).
| Time | Temp. | Humidity | Pressure | Rain* | Wind** | Luminosity | Snow |
|---|---|---|---|---|---|---|---|
| 1778358257 | 30.56° C | 30% | 4298.1 hPa | 0 mm | - | 797 W/m² | - |
| 1778357953 | 30.56° C | 32% | 4297.9 hPa | 0 mm | - | 798 W/m² | - |
| 1778357648 | 31.11° C | 31% | 4297.9 hPa | 0 mm | - | 802 W/m² | - |
| 1778357346 | 30° C | 33% | 4298.2 hPa | 0 mm | - | 800 W/m² | - |
| 1778357045 | 30° C | 34% | 4298.3 hPa | 0 mm | - | 796 W/m² | - |
| 1778356742 | 29.44° C | 35% | 4298.2 hPa | 0 mm | - | 802 W/m² | - |
| 1778356443 | 28.89° C | 37% | 4298.2 hPa | 0 mm | - | 802 W/m² | - |
| 1778356142 | 29.44° C | 36% | 4298.6 hPa | 0 mm | - | 801 W/m² | - |
| 1778355839 | 28.89° C | 36% | 4298.7 hPa | 0 mm | - | 804 W/m² | - |
| 1778355535 | 28.89° C | 39% | 4298.6 hPa | 0 mm | - | 810 W/m² | - |
| 1778355235 | 28.33° C | 39% | 4298.6 hPa | 0 mm | - | 810 W/m² | - |
| 1778354932 | 27.78° C | 39% | 4298.5 hPa | 0 mm | - | 807 W/m² | - |
| 1778354628 | 27.78° C | 41% | 4298.8 hPa | 0 mm | - | 801 W/m² | - |
| 1778354323 | 26.67° C | 41% | 4298.8 hPa | 0 mm | - | 796 W/m² | - |
| 1778354019 | 27.22° C | 41% | 4298.7 hPa | 0 mm | - | 801 W/m² | - |
| 1778353715 | 26.67° C | 43% | 4299.1 hPa | 0 mm | - | 820 W/m² | - |
| 1778353413 | 26.67° C | 44% | 4299 hPa | 0 mm | - | 817 W/m² | - |
| 1778353110 | 26.11° C | 45% | 4299.2 hPa | 0 mm | - | 779 W/m² | - |
| 1778352806 | 25.56° C | 46% | 4299 hPa | 0 mm | - | 803 W/m² | - |
| 1778352504 | 26.11° C | 46% | 4299.2 hPa | 0 mm | - | 823 W/m² | - |
| 1778352201 | 25° C | 47% | 4299.3 hPa | 0 mm | - | 830 W/m² | - |
| 1778351897 | 25° C | 47% | 4299.1 hPa | 0 mm | - | 852 W/m² | - |
| 1778351592 | 24.44° C | 49% | 4299.4 hPa | 0 mm | - | 850 W/m² | - |
| 1778351289 | 23.89° C | 50% | 4299.3 hPa | 0 mm | - | 849 W/m² | - |
| 1778350986 | 23.89° C | 52% | 4299.3 hPa | 0 mm | - | 851 W/m² | - |
* Rain latest hour (hover to see other rain measurements)
** Current wind speed in m/s (hover to see current wind gust speed)